This is the latest recevied weather packets stored in our database for station/object IR3AS. If no packets are shown the sender has not sent any weather packets the latest 10 day(s).
| Time | Temp. | Humidity | Pressure | Rain* | Wind** | Luminosity | Snow |
|---|---|---|---|---|---|---|---|
| 1787589008 | 15.56° C | 74% | 867 hPa | 0 mm | - | - | - |
| 1787588708 | 15.56° C | 73% | 866.7 hPa | 0 mm | - | - | - |
| 1787588408 | 16.67° C | 72% | 867.3 hPa | 0 mm | - | - | - |
| 1787588108 | 17.22° C | 71% | 867.4 hPa | 0 mm | - | - | - |
| 1787587808 | 16.67° C | 71% | 867.7 hPa | 0 mm | - | - | - |
| 1787587508 | 16.67° C | 71% | 867.8 hPa | 0 mm | - | - | - |
| 1787587208 | 16.67° C | 72% | 867.8 hPa | 0 mm | - | - | - |
| 1787586908 | 16.67° C | 72% | 867.9 hPa | 0 mm | - | - | - |
| 1787586609 | 16.11° C | 75% | 868 hPa | 0 mm | - | - | - |
| 1787586308 | 16.11° C | 74% | 868.3 hPa | 0 mm | - | - | - |
| 1787586008 | 15.56° C | 76% | 868.2 hPa | 0 mm | - | - | - |
| 1787585708 | 15° C | 76% | 868.6 hPa | 0 mm | - | - | - |
| 1787585408 | 15° C | 75% | 868.1 hPa | 0 mm | - | - | - |
| 1787585108 | 15.56° C | 76% | 868 hPa | 0 mm | - | - | - |
| 1787584808 | 15° C | 75% | 868 hPa | 0 mm | - | - | - |
| 1787584508 | 15° C | 75% | 867.6 hPa | 0 mm | - | - | - |
| 1787584208 | 14.44° C | 75% | 867.4 hPa | 0 mm | - | - | - |
| 1787583908 | 15° C | 75% | 867.6 hPa | 0 mm | - | - | - |
| 1787583608 | 15° C | 74% | 867.6 hPa | 0 mm | - | - | - |
| 1787583308 | 15.56° C | 73% | 867.6 hPa | 0 mm | - | - | - |
| 1787583008 | 15.56° C | 72% | 867.5 hPa | 0 mm | - | - | - |
| 1787582709 | 16.11° C | 71% | 867.8 hPa | 0 mm | - | - | - |
| 1787582408 | 16.11° C | 69% | 867.5 hPa | 0 mm | - | - | - |
| 1787582108 | 16.67° C | 69% | 867.5 hPa | 0 mm | - | - | - |
| 1787581808 | 16.67° C | 68% | 867.5 hPa | 0 mm | - | - | - |
* Rain latest hour (hover to see other rain measurements)
** Current wind speed in m/s (hover to see current wind gust speed)